Theta_e
315 318 322 323 325 325 324 323 317 320 319 309 311 313 316 322 322 322 321 322 324 328 329 328 329 327 328 334 339 342 344 347 348 342 343 356 355 353 355 349 350 348 348 346 346 346 344 344 343 344 345 344 344 344 342 340 337 337 338 338 339 337 333 329 326 324 327 333 338 338 337 339 339 339 339 340 341 341 344 345 345 345 345 345 345 344 344 343 343 341 338 334 329 326 326 327 326
323 322 323 322 324 325 324 324 316 314 312 307 311 315 318 324 321 321 322 324 333 334 331 331 331 328 330 337 335 339 345 348 351 352 352 355 354 355 353 350 349 347 347 346 345 345 346 345 342 343 343 343 343 343 342 340 338 339 338 338 338 334 331 327 324 325 331 335 338 338 338 339 338 339 340 341 341 341 344 345 345 345 345 345 345 345 344 343 342 340 334 330 327 325 328 329 328
326 320 322 322 322 323 322 322 314 308 308 306 310 319 322 322 321 322 325 327 333 332 331 332 330 329 330 332 333 340 343 346 350 349 350 354 356 355 352 351 349 348 347 346 345 344 346 346 342 341 341 342 342 341 341 340 339 339 338 338 335 332 328 323 323 329 335 336 338 338 338 338 338 340 341 342 342 343 345 345 345 345 345 345 345 344 344 343 342 340 335 333 332 330 330 330 330
323 321 323 323 321 321 319 318 315 309 307 307 309 319 323 321 322 323 325 325 328 330 330 331 329 332 335 335 337 342 341 344 350 349 351 354 356 354 351 351 349 348 347 345 345 343 346 345 341 340 340 340 340 340 340 339 339 339 337 335 333 330 324 321 326 334 337 338 338 338 338 338 339 341 342 343 343 344 345 345 345 345 345 344 344 344 343 342 340 336 334 335 336 335 332 331 331
321 322 321 322 322 323 320 317 316 312 309 310 310 318 322 320 322 323 324 323 325 329 330 332 333 332 339 345 344 345 344 344 349 351 353 355 356 353 351 350 349 348 346 345 345 344 346 345 341 339 340 339 339 340 339 339 338 337 334 331 331 326 320 321 328 335 338 339 338 337 338 338 340 342 342 343 343 344 344 345 344 344 344 343 343 342 342 339 336 332 333 336 337 337 334 331 330
321 321 320 320 321 322 320 316 313 311 314 318 315 318 321 320 323 322 323 323 326 330 330 335 334 330 341 349 349 349 349 346 346 350 354 355 355 354 351 350 349 348 346 345 345 345 345 342 339 338 339 339 339 339 339 338 335 333 330 329 329 326 323 326 329 335 339 338 338 338 339 339 341 342 342 342 343 343 343 344 344 343 343 343 342 342 340 335 332 331 334 336 336 335 332 330 330
321 320 320 318 319 319 317 312 311 312 317 321 319 319 321 321 322 321 322 323 326 330 330 334 334 333 340 346 349 349 351 349 347 349 354 355 355 354 352 350 349 348 346 346 345 346 342 338 336 337 338 338 337 338 337 334 331 329 327 327 328 327 330 334 334 338 340 337 338 339 339 339 341 342 342 342 343 343 343 343 343 343 342 342 342 339 336 331 331 331 332 333 333 331 330 330 330
319 321 322 319 318 317 314 312 313 315 318 321 320 320 320 321 321 321 322 322 325 329 329 331 333 335 335 342 350 350 350 351 350 351 355 355 355 354 353 351 349 348 347 347 347 345 339 334 334 335 335 335 335 334 332 329 328 326 326 327 326 327 332 336 336 337 338 337 339 339 339 339 340 342 342 342 343 342 342 342 342 342 341 341 339 335 331 330 331 331 331 331 331 330 331 331 330
318 319 321 320 317 316 314 312 314 317 320 321 320 319 320 321 320 321 322 322 324 326 327 328 331 334 335 343 350 350 349 351 352 353 355 354 354 354 353 351 350 349 348 348 347 343 338 334 332 332 332 331 330 329 327 325 325 325 327 327 327 331 336 337 336 336 335 337 338 339 339 339 340 341 341 342 342 341 342 341 341 340 340 340 336 331 329 330 331 331 331 331 331 330 329 328 328
318 317 319 319 315 312 311 313 315 317 320 320 320 319 319 320 320 321 321 322 323 324 327 326 330 333 336 343 349 349 349 352 353 354 355 354 354 354 353 352 350 349 348 349 346 343 341 335 331 331 330 328 327 326 325 324 324 326 327 326 329 335 338 339 338 336 334 335 338 339 339 339 340 340 340 341 341 341 340 340 340 339 339 337 332 329 329 331 332 332 331 331 331 329 327 325 325
319 317 317 317 313 309 309 312 315 318 320 319 319 318 319 319 320 321 321 323 322 322 326 327 331 334 339 346 350 349 350 353 355 355 355 354 354 353 353 352 351 349 349 348 345 344 343 338 333 331 330 329 328 326 324 324 325 328 329 328 331 336 338 337 338 337 336 335 336 339 339 339 339 339 339 340 340 340 339 339 339 339 338 335 330 329 330 331 332 332 331 331 331 328 326 323 323
318 318 317 314 312 311 312 312 314 319 319 318 318 318 320 320 320 321 321 322 322 323 326 330 330 332 338 344 348 349 352 354 355 356 355 354 353 353 353 353 351 350 349 347 345 345 343 341 337 334 332 330 329 326 325 325 324 329 332 332 331 334 336 336 336 338 338 336 336 337 338 339 339 339 339 339 339 339 339 339 338 338 337 333 329 329 330 331 332 332 331 332 331 328 326 322 321
316 319 318 313 313 314 314 314 315 318 317 318 319 319 320 319 321 320 321 321 322 324 327 330 330 336 342 346 349 349 352 353 356 355 355 354 353 353 353 353 351 351 350 347 346 345 344 343 341 339 335 331 331 328 326 326 325 329 334 334 331 331 332 333 336 338 339 338 336 336 337 338 338 339 338 338 339 338 339 338 337 337 335 332 329 330 330 332 333 332 332 332 331 329 326 322 320
316 318 318 315 315 315 315 314 315 314 314 319 319 320 321 320 321 320 322 321 321 326 329 331 331 339 346 349 347 348 352 353 355 354 354 354 352 352 352 353 351 351 350 348 346 345 345 343 343 342 338 336 337 334 332 329 328 331 333 334 333 331 330 333 337 339 338 338 337 336 336 336 337 338 337 338 338 338 338 337 337 337 335 331 330 330 329 331 332 332 332 332 332 330 326 322 319
317 317 318 317 315 315 316 315 315 313 314 320 319 320 321 322 323 321 322 321 324 332 333 333 335 337 341 343 342 346 351 353 355 354 354 353 352 351 352 353 351 351 349 348 347 345 345 344 344 342 340 341 340 339 338 335 331 331 332 334 335 333 332 335 338 339 339 338 337 335 335 335 336 337 337 338 338 339 338 337 338 337 335 331 330 330 329 331 333 333 332 332 332 330 328 323 319
318 317 318 315 313 313 315 316 316 313 316 321 320 320 322 324 324 322 323 326 332 335 333 336 341 340 339 342 344 348 351 353 354 353 353 353 352 351 352 353 350 351 349 348 347 346 346 345 345 343 342 342 341 341 341 340 336 333 333 335 338 335 334 337 339 338 338 338 337 334 334 335 336 336 337 338 338 337 337 337 338 337 335 332 331 330 329 330 333 333 332 332 332 331 329 324 320
316 318 317 313 312 312 315 317 316 314 318 321 320 320 323 325 325 327 329 332 334 334 337 339 345 346 344 346 348 350 351 352 352 353 353 352 352 350 351 352 350 350 349 348 348 348 347 346 346 343 344 343 342 342 341 342 338 335 336 336 338 336 335 337 337 337 338 338 336 333 334 337 338 337 336 337 336 335 334 335 337 336 336 333 331 331 328 330 333 334 333 333 332 331 329 325 322
315 317 316 313 314 315 317 318 317 318 320 320 321 321 325 327 325 330 332 332 332 333 338 340 345 348 347 349 349 351 351 352 352 352 352 351 353 351 351 351 351 350 349 349 348 348 347 346 346 344 344 344 343 343 342 342 339 338 339 338 338 337 336 336 337 338 338 338 336 334 337 340 340 338 338 337 336 335 333 331 333 335 335 332 331 331 328 330 333 334 334 333 332 331 330 329 325
316 317 315 315 317 318 318 319 319 319 320 319 321 323 326 328 325 328 328 331 333 333 337 341 347 347 347 349 349 351 351 352 352 351 351 350 352 352 350 350 351 350 350 349 348 348 348 346 344 343 344 344 344 343 343 342 340 340 341 340 339 338 338 338 339 339 339 339 337 337 339 340 340 339 339 338 337 337 333 328 328 331 333 330 330 330 327 329 332 334 334 333 332 332 335 335 331
316 317 315 317 318 318 317 319 319 319 320 319 321 321 326 330 328 326 326 331 332 332 335 339 348 349 347 347 349 351 351 351 351 351 351 349 351 353 351 350 350 350 350 349 348 346 346 345 342 343 345 344 343 343 343 342 340 341 341 341 340 340 340 340 340 340 340 340 339 339 341 341 341 341 340 340 338 337 335 330 327 328 330 328 328 329 327 328 331 334 334 333 333 334 338 337 336
316 316 317 318 318 317 317 318 319 319 319 319 321 320 325 330 329 326 328 331 329 331 332 335 345 348 348 346 349 351 351 351 351 350 350 349 350 351 351 350 349 349 349 348 344 342 343 342 341 342 343 342 343 341 341 341 341 342 340 341 341 341 340 341 341 341 341 341 340 341 342 341 341 343 342 341 339 338 337 334 331 331 332 331 328 329 331 329 332 336 335 333 334 336 338 336 336
316 316 317 318 318 316 317 318 318 319 318 319 320 319 321 325 325 327 329 330 329 330 330 335 342 344 346 347 348 351 351 350 350 350 349 349 350 351 352 350 349 349 348 343 340 341 342 342 341 341 341 341 343 341 340 341 341 341 340 341 342 342 342 341 341 341 341 341 341 341 341 339 340 343 343 341 339 339 338 337 336 335 335 334 329 332 335 332 334 338 337 336 336 337 337 337 337
316 317 318 317 317 317 317 318 318 318 318 319 318 318 319 320 322 326 329 332 332 333 333 337 339 342 346 347 348 349 349 349 350 349 347 350 351 351 352 351 350 349 346 341 340 342 343 343 342 341 342 342 343 342 342 342 342 341 340 341 342 342 342 341 341 341 341 341 341 341 340 339 338 339 341 341 339 339 338 337 337 336 337 336 331 333 336 334 335 337 338 338 337 337 336 337 337
316 316 317 316 316 316 317 318 318 318 318 318 318 318 318 319 321 324 329 333 334 334 335 336 336 340 346 347 347 348 349 349 349 349 347 349 351 352 352 351 351 347 344 342 341 342 342 343 343 342 343 343 343 343 342 342 342 341 341 342 342 341 342 341 341 340 340 341 342 342 341 340 338 337 339 341 340 339 339 337 336 337 337 336 332 333 336 335 335 335 336 337 336 336 337 337 336
316 315 316 317 316 316 317 318 317 317 318 318 318 318 318 319 321 324 329 333 335 336 336 335 333 336 343 347 347 347 349 349 349 349 348 349 350 351 349 349 350 347 344 343 342 343 342 343 344 343 343 342 343 343 343 343 343 343 342 343 342 341 341 341 340 340 340 341 342 342 341 341 339 336 337 339 339 339 339 339 338 336 336 336 334 334 336 335 335 335 336 337 336 335 336 336 335
315 315 315 316 316 316 316 317 317 317 318 318 317 317 318 318 320 324 328 331 333 336 336 335 335 337 343 347 347 347 348 349 349 349 349 350 350 349 348 347 348 347 345 344 342 343 344 344 344 343 343 343 343 343 344 344 343 343 342 342 342 341 341 341 340 340 340 340 341 341 341 341 340 339 337 337 338 338 339 340 340 338 336 336 334 334 334 335 336 335 336 337 337 335 336 336 334
316 316 314 315 316 315 316 317 317 318 318 318 317 317 318 318 319 322 327 329 331 335 335 335 339 342 345 346 346 347 347 349 349 349 350 349 349 348 347 348 348 347 346 345 344 343 345 345 344 344 344 344 344 343 343 344 343 342 342 342 342 342 341 341 341 342 340 340 340 340 341 340 340 340 339 337 337 338 339 340 340 339 338 337 336 334 333 334 335 335 336 337 337 336 336 336 334
316 316 315 314 315 316 316 317 317 317 318 317 318 317 317 317 318 321 326 326 328 333 333 334 339 342 344 345 345 345 346 348 349 349 350 349 349 347 346 347 348 347 346 346 346 345 345 345 343 343 344 344 344 344 344 344 344 343 343 343 342 341 342 341 342 342 341 340 339 340 340 339 340 339 339 339 337 338 339 339 339 338 338 337 336 335 333 335 335 335 336 336 336 335 335 336 335
315 316 316 314 315 316 315 317 317 317 317 318 317 316 316 317 318 321 325 324 327 331 332 333 337 339 341 344 344 344 346 349 349 349 349 349 348 346 346 347 347 347 346 346 346 345 345 345 345 345 345 345 345 345 345 345 345 344 344 344 343 342 342 342 341 341 341 340 339 341 340 339 339 339 339 339 338 338 338 339 338 338 337 336 335 335 334 335 335 334 335 336 336 336 336 336 336
314 315 315 314 314 314 316 317 317 318 317 318 317 312 313 317 318 322 323 324 327 330 332 334 336 338 340 342 343 344 347 348 348 349 348 348 346 345 345 346 346 346 345 344 344 344 344 344 345 345 346 346 346 345 345 345 345 345 345 345 344 343 342 341 341 341 341 340 340 341 340 339 339 339 339 338 338 338 337 338 337 336 337 336 335 335 335 334 334 333 334 335 335 336 337 337 337
314 314 314 314 311 311 316 317 316 318 317 318 316 310 313 317 319 323 324 323 327 330 332 333 335 337 339 341 342 344 347 348 349 349 348 347 346 346 346 346 346 345 344 344 344 344 343 344 344 344 345 344 344 344 344 345 346 346 344 343 342 342 342 340 341 341 341 341 340 340 340 340 340 339 339 338 337 336 336 337 337 335 336 336 335 335 335 334 333 333 334 335 335 335 336 337 337
314 311 310 312 311 312 316 317 317 318 316 318 315 311 315 318 318 322 323 324 327 330 331 333 334 335 338 340 341 344 346 349 350 348 348 346 345 346 346 346 346 345 344 344 343 343 343 344 343 343 343 343 342 342 343 343 344 345 344 343 342 341 340 339 339 339 339 338 338 339 339 339 339 338 339 339 337 336 335 336 336 333 332 335 336 335 336 334 333 334 333 333 334 334 334 335 337
314 311 308 310 310 311 314 316 317 317 317 317 315 314 317 318 319 321 322 323 326 328 331 335 334 333 337 339 340 343 346 348 349 348 347 347 346 346 346 346 346 345 344 343 343 343 343 343 343 343 343 343 342 342 342 341 342 343 342 342 341 340 339 339 339 338 337 336 337 339 338 338 338 338 339 338 337 336 335 336 335 332 330 332 335 336 336 334 333 333 332 332 333 333 332 333 335
311 311 310 310 311 311 312 314 317 317 317 316 316 316 318 319 319 321 322 322 324 326 330 334 336 335 335 336 339 341 343 346 347 349 348 346 346 346 345 345 345 346 345 343 343 343 343 342 342 342 342 343 342 342 342 341 342 341 341 341 340 340 339 339 338 338 337 337 337 338 338 338 338 338 339 339 338 337 336 335 335 334 332 331 332 335 336 335 334 333 333 333 332 332 331 332 335
310 309 310 310 311 311 312 313 316 317 317 316 316 316 318 319 319 321 323 322 324 324 330 336 338 340 337 335 339 339 342 346 348 349 347 345 346 346 345 345 345 346 345 344 344 343 342 342 342 342 341 342 342 342 341 341 341 340 341 341 340 340 340 339 338 337 337 337 338 338 337 337 337 337 338 338 339 338 336 335 335 336 334 332 332 333 335 335 335 333 333 334 333 332 332 333 335
312 312 311 310 309 311 315 316 316 317 317 316 316 316 318 319 318 322 322 322 324 323 331 337 338 339 338 338 340 343 344 347 349 348 344 343 346 346 345 346 346 346 345 344 344 343 342 342 342 341 341 342 341 341 341 340 340 340 340 340 340 341 340 339 339 338 337 337 338 337 337 337 336 337 337 338 339 338 337 336 335 336 336 334 332 332 334 334 334 334 334 334 334 334 334 335 335
315 314 312 312 311 310 315 318 317 317 316 315 317 317 318 318 319 322 321 323 324 323 331 335 333 333 336 338 341 344 345 346 349 349 346 344 346 346 346 346 346 346 345 345 344 343 342 341 341 341 341 342 341 341 340 340 340 339 339 339 340 340 340 340 339 339 338 337 337 337 337 336 336 336 337 337 338 338 338 337 336 335 336 336 334 333 334 333 333 334 334 334 334 334 333 335 336
316 314 311 311 312 312 315 318 316 317 316 315 317 317 318 319 320 322 322 323 324 324 331 333 332 332 335 339 340 342 343 345 348 348 348 347 347 346 345 346 346 345 346 345 344 343 342 342 341 341 340 340 340 340 340 340 340 340 340 339 339 339 340 340 339 339 338 337 337 337 336 336 336 337 337 337 338 338 338 338 336 336 336 336 335 335 334 333 332 333 334 334 334 333 331 333 336
316 315 312 310 312 313 315 317 317 317 315 315 317 316 317 320 321 322 323 324 324 325 328 331 330 332 336 339 340 342 343 344 346 346 347 347 347 346 345 346 345 345 346 344 343 342 341 341 341 341 340 339 340 339 339 340 340 339 339 339 339 339 338 338 338 339 338 338 338 337 337 337 337 337 336 336 337 337 337 336 336 336 336 335 335 335 335 334 333 334 335 334 333 333 331 332 335
317 315 311 309 312 312 310 314 317 317 316 317 317 315 318 322 321 321 322 324 326 327 329 332 331 331 335 337 337 338 341 343 343 344 346 346 346 346 345 345 345 345 344 342 342 340 340 340 340 340 340 339 339 339 339 339 339 339 338 338 338 338 338 338 338 338 339 338 338 338 337 336 335 335 335 335 336 336 336 335 336 337 336 335 335 336 336 336 334 333 334 334 334 332 331 332 334
317 316 312 310 312 312 311 314 316 316 316 318 317 312 315 322 322 322 325 328 329 329 331 334 334 332 334 336 335 334 338 341 341 342 344 346 345 345 344 344 343 343 343 341 341 340 340 340 340 340 340 339 339 339 339 338 338 338 338 338 337 338 338 338 338 338 339 338 338 339 337 334 335 335 335 335 335 336 336 335 337 337 336 335 335 336 336 336 335 333 333 333 333 332 331 332 332
314 315 315 313 314 315 315 316 315 312 312 316 316 309 310 319 320 322 325 327 327 327 329 331 333 335 337 339 340 337 338 339 340 341 343 345 345 343 343 342 342 341 341 340 340 340 340 340 340 340 340 340 339 339 339 338 338 338 338 338 338 339 339 338 339 338 338 338 338 339 337 336 336 335 335 335 335 336 336 336 337 336 336 335 335 336 336 335 336 334 333 333 333 332 331 332 333
311 313 315 315 316 315 315 315 313 310 309 315 317 310 309 314 317 321 324 324 325 327 330 330 330 332 335 339 342 340 341 341 342 342 342 343 343 342 342 341 340 340 339 339 339 340 340 340 340 339 339 339 339 339 339 338 338 338 338 338 338 338 339 339 338 338 338 338 338 338 339 338 338 336 334 335 335 335 336 336 336 336 336 335 335 335 335 335 336 334 333 333 334 333 331 332 335
310 315 315 315 316 315 315 314 312 311 312 314 317 313 310 310 315 322 324 325 328 330 333 333 329 331 336 340 341 341 342 342 342 341 340 341 340 339 339 338 338 338 337 338 338 338 339 339 339 339 339 339 339 339 339 338 338 338 338 338 338 338 338 338 337 338 338 338 338 338 338 339 338 338 336 336 336 336 336 336 336 337 336 335 335 335 335 336 337 336 335 335 335 334 332 332 332
313 316 315 315 316 315 315 314 312 313 312 310 312 312 310 309 316 323 325 326 329 332 334 335 334 337 340 340 341 340 340 339 339 338 338 338 338 337 336 336 336 336 336 336 336 337 337 338 338 338 339 339 339 339 339 338 338 338 338 338 338 338 337 337 337 337 337 338 338 338 338 338 338 339 338 337 337 336 336 335 336 337 336 334 334 334 334 335 335 336 336 335 336 335 333 332 331
314 316 315 315 316 316 316 314 311 311 311 309 310 311 309 309 314 321 324 325 329 334 335 334 335 338 339 339 339 338 337 336 335 335 336 336 335 335 335 335 335 335 335 335 336 336 336 336 337 337 337 338 338 338 338 338 338 338 338 338 338 337 337 337 337 337 337 338 338 338 338 338 338 338 338 338 337 337 336 335 335 335 335 334 334 334 334 334 334 334 334 334 335 335 334 334 334
314 315 315 314 314 315 315 314 311 310 310 310 311 312 309 311 317 321 322 324 330 334 334 334 335 336 337 338 337 336 335 334 332 333 334 335 334 333 333 333 334 334 335 335 335 335 335 335 335 336 336 336 336 337 337 337 337 337 337 337 337 337 337 336 336 337 337 338 338 338 338 338 338 338 337 337 337 337 336 335 334 334 334 334 334 334 334 334 334 333 334 334 334 334 334 335 336
314 316 315 311 311 312 311 312 311 310 309 309 311 314 310 311 318 323 322 325 330 333 333 334 335 335 336 335 334 334 333 332 332 331 332 332 332 331 331 332 332 333 333 334 334 334 334 334 334 335 334 334 334 334 335 335 335 336 335 336 336 335 335 335 335 335 335 337 337 337 337 337 338 337 337 337 338 338 337 336 335 334 334 334 333 334 334 334 334 334 334 334 334 334 333 334 336
313 314 312 309 309 311 311 311 311 311 310 309 312 313 309 311 318 324 329 330 331 333 332 332 334 335 335 333 333 333 332 331 330 329 329 329 330 330 330 330 331 331 331 332 332 332 333 333 333 333 333 333 332 332 333 333 333 334 334 334 334 335 334 334 334 335 335 335 336 337 337 337 338 336 336 337 338 338 337 336 336 334 334 334 333 333 333 334 334 334 333 333 334 334 334 335 336
312 312 311 309 309 311 313 311 311 311 310 310 314 311 311 320 328 329 333 333 332 332 330 330 333 334 334 333 331 330 329 329 328 327 327 328 329 329 329 329 329 330 330 330 330 331 331 332 332 332 332 331 332 331 332 332 332 333 333 333 333 334 334 334 334 334 334 335 335 336 336 337 336 335 335 336 337 337 336 336 335 334 334 334 333 333 333 333 334 333 333 332 333 334 334 334 334
313 314 312 310 309 311 312 311 311 311 310 311 312 310 314 326 334 332 332 332 331 332 330 331 332 332 332 331 329 328 327 326 326 325 326 327 328 328 328 328 328 328 329 329 329 330 330 330 330 331 331 330 331 331 332 332 333 333 333 333 333 334 333 333 333 333 333 334 334 334 335 334 333 333 335 336 336 337 336 336 335 334 334 334 333 333 333 333 333 333 333 332 333 333 333 333 333
313 314 312 310 310 312 311 311 312 311 311 310 312 319 324 329 332 332 331 332 331 332 331 331 331 331 330 329 327 327 325 325 325 324 325 326 326 326 326 327 327 327 328 327 328 328 328 329 329 329 330 330 330 330 331 332 332 333 333 333 333 332 332 332 332 332 333 333 333 333 334 332 329 331 334 335 336 336 335 335 335 335 334 334 333 332 332 332 332 332 333 333 333 333 333 333 333
313 311 310 312 314 314 310 311 314 312 312 311 314 328 334 333 335 333 330 332 332 332 331 331 331 330 329 327 326 325 324 324 324 323 324 325 325 325 325 325 326 326 326 326 327 327 327 327 327 328 328 328 329 329 330 331 332 332 332 333 332 331 331 332 332 333 333 333 333 333 333 332 331 330 332 334 336 336 335 335 334 334 334 334 333 333 332 331 331 332 331 332 332 332 333 333 333
312 309 311 313 314 315 311 311 313 312 314 312 312 328 336 334 336 335 331 333 333 332 332 331 330 329 327 326 325 324 324 323 323 323 323 324 324 324 324 325 325 325 325 325 325 325 326 326 326 326 327 327 328 328 329 330 330 331 331 332 332 332 331 331 332 332 333 333 333 334 333 332 332 332 331 333 335 335 335 335 334 334 334 333 333 332 332 331 332 332 331 332 332 332 333 333 333
313 311 313 314 311 311 311 311 312 312 314 314 313 325 332 328 331 335 333 333 334 333 332 330 329 328 326 325 324 324 323 322 322 322 322 323 323 323 323 323 324 323 324 324 324 324 324 324 325 325 325 326 326 327 327 328 329 329 330 331 331 332 331 331 331 331 332 333 333 334 334 331 331 332 331 332 334 334 334 334 334 333 333 333 333 331 331 332 332 331 332 332 332 333 334 333 333
314 314 313 314 312 310 311 312 313 312 313 316 316 320 324 322 327 334 333 332 333 332 332 330 328 327 325 325 324 323 323 322 322 321 321 322 322 322 322 322 322 322 322 323 323 323 323 323 324 324 324 325 325 325 326 326 327 328 328 329 330 331 331 331 331 331 332 333 333 333 333 331 330 331 331 332 333 333 333 334 334 333 333 333 333 332 332 332 331 331 332 332 333 333 333 333 333
312 312 310 311 312 312 313 311 311 311 311 315 317 316 319 325 330 332 332 333 332 331 331 330 328 326 325 324 323 322 322 321 321 320 320 321 321 321 321 320 321 321 321 322 322 322 322 322 322 323 323 324 324 325 325 325 326 326 327 329 329 330 331 331 331 332 332 332 331 331 331 330 330 331 331 333 333 332 333 334 334 333 333 333 333 333 332 332 332 332 332 332 333 333 332 332 333
313 312 310 312 311 311 313 311 311 311 309 312 314 316 325 333 332 331 332 333 332 330 330 328 326 325 324 323 322 321 321 320 320 319 319 320 320 320 320 320 320 320 320 321 321 321 321 321 321 322 323 323 323 324 324 324 325 326 326 327 328 329 330 330 330 331 331 331 330 330 329 329 330 331 332 332 332 332 333 333 334 334 334 334 333 333 332 332 332 332 332 332 331 331 332 332 332
Wind_Speed
1 3 5 7 9 9 9 6 6 5 6 9 9 11 9 4 1 4 6 3 3 2 1 2 0 3 3 5 5 13 13 10 8 4 3 6 7 9 10 14 21 20 20 20 18 19 19 21 22 23 23 24 24 24 24 24 24 23 20 17 16 15 13 13 14 15 17 19 19 17 18 17 14 15 14 12 10 9 11 13 14 15 16 16 17 17 16 16 14 13 13 13 13 14 13 13 12
4 5 7 8 10 9 5 4 7 6 7 10 8 12 8 5 2 8 6 0 3 4 1 1 2 2 2 4 0 11 13 11 10 9 8 13 12 11 13 15 18 20 20 19 19 19 17 20 23 23 24 24 24 23 24 24 24 21 18 17 15 15 14 13 16 18 20 22 21 19 18 17 16 16 13 10 9 9 11 13 14 15 16 16 16 16 15 14 13 12 12 12 12 11 11 11 12
6 7 8 8 8 8 4 3 7 8 9 10 8 8 4 5 4 4 3 5 4 3 3 1 4 3 2 4 3 8 11 11 12 11 10 13 12 11 15 16 17 19 18 19 20 20 17 19 23 23 24 24 24 24 24 24 22 20 18 16 15 15 14 15 18 21 22 22 21 20 18 18 17 15 12 11 11 11 12 14 14 16 16 16 16 15 14 13 12 11 11 11 10 9 10 11 12
5 7 8 8 6 7 5 6 7 9 10 9 8 2 2 3 1 6 6 3 2 3 5 4 6 3 2 1 5 10 10 8 10 10 8 11 13 14 17 17 18 17 17 19 19 19 17 19 23 22 23 24 24 25 23 23 20 18 17 16 15 14 14 18 22 22 22 21 20 21 20 18 16 14 13 12 12 12 13 14 15 16 16 15 15 14 13 12 11 10 10 9 8 8 9 10 11
6 8 8 9 5 4 5 6 7 9 9 8 9 1 2 2 5 7 4 2 3 4 5 5 5 6 2 8 7 5 7 7 11 11 10 13 16 18 18 18 18 17 17 18 19 19 18 19 22 21 22 22 23 23 21 20 19 18 17 17 15 14 16 21 23 21 19 20 23 23 21 18 17 15 14 13 12 13 14 15 15 15 15 14 13 12 12 11 10 9 9 9 7 7 8 10 10
8 8 8 9 5 4 4 7 8 9 10 11 10 2 3 3 7 4 3 4 4 4 6 4 2 7 7 9 9 8 7 3 10 11 13 15 17 19 19 18 16 16 17 18 18 18 19 21 21 21 21 21 20 20 19 19 18 18 18 17 15 15 18 20 20 18 18 22 25 23 21 19 18 16 15 14 13 13 14 14 14 13 13 12 11 10 11 11 10 9 9 9 8 7 8 9 10
8 7 6 7 6 4 7 9 9 9 9 12 10 3 1 4 6 1 3 6 6 5 6 3 3 6 8 8 9 11 12 9 9 11 14 16 17 18 18 18 17 17 18 18 17 18 21 23 22 21 20 20 19 18 19 18 18 18 18 17 15 17 18 18 18 17 19 24 25 23 22 20 19 17 16 16 14 14 15 15 14 13 11 10 8 9 11 10 10 10 11 10 9 8 8 9 10
9 7 4 5 6 5 8 10 9 10 5 3 6 4 1 3 3 3 4 6 7 8 8 4 5 4 7 9 8 10 13 14 12 14 16 17 17 17 17 18 18 18 17 18 18 20 22 23 22 21 21 20 19 19 19 19 18 18 17 17 16 17 18 18 18 18 21 24 25 23 21 20 20 18 16 16 16 15 15 15 13 12 10 8 7 10 11 10 11 11 11 11 10 8 8 8 9
9 7 4 5 7 7 8 9 10 12 7 2 5 4 1 2 1 4 6 5 5 6 9 8 6 5 8 12 9 9 11 13 14 17 16 16 17 17 17 18 19 18 17 19 20 21 22 22 23 21 21 21 20 20 19 19 18 18 17 17 18 18 18 17 16 18 21 23 24 23 21 20 20 18 17 16 16 16 15 14 12 11 9 7 9 11 11 11 11 11 11 10 9 8 8 8 9
7 6 5 5 7 8 8 9 9 10 10 5 4 5 6 8 6 6 9 7 7 7 7 9 7 5 12 12 8 7 9 12 14 15 15 14 16 17 18 17 18 19 19 20 20 21 20 21 22 21 21 21 20 20 19 19 18 18 17 17 19 19 18 18 17 17 18 20 23 23 21 20 19 19 17 15 15 15 14 13 12 10 8 7 11 12 11 11 10 10 11 9 8 8 8 8 9
6 6 5 5 7 8 8 8 8 9 7 4 4 6 7 8 7 7 9 7 8 9 8 8 8 7 13 10 6 7 8 11 14 15 14 14 15 17 18 17 17 19 20 20 21 21 20 20 21 21 21 20 20 19 18 18 18 17 17 18 19 20 20 20 19 18 17 19 22 23 22 19 19 19 17 16 14 15 14 13 12 11 9 9 11 11 12 11 10 10 10 8 8 8 8 9 9
6 6 5 6 7 8 8 8 7 6 5 5 7 8 6 6 7 7 10 9 8 9 10 9 7 8 10 9 6 7 9 11 14 15 13 13 15 17 18 17 17 17 19 21 21 21 21 20 19 19 20 20 19 19 18 18 18 17 18 19 19 20 20 20 20 19 18 18 20 22 22 19 17 17 17 16 14 14 14 13 13 12 10 11 12 11 11 11 10 9 9 8 8 8 9 9 9
7 6 6 7 7 8 8 7 5 3 4 6 6 6 4 7 9 9 11 10 10 10 12 9 3 6 8 9 7 8 10 11 14 15 13 13 14 16 17 17 17 17 18 19 20 21 22 20 19 19 19 19 18 18 18 17 18 18 19 19 19 20 20 21 20 20 20 18 17 19 20 19 16 15 14 14 13 13 13 13 13 12 12 12 12 10 10 11 10 9 8 7 7 8 9 9 9
7 6 6 6 8 9 7 7 5 5 5 5 6 4 6 8 8 8 8 11 12 8 9 6 1 9 10 7 7 6 9 13 15 15 14 13 14 17 17 17 17 17 16 17 19 21 21 20 20 19 19 18 17 17 17 17 18 18 19 19 19 20 20 20 21 20 19 17 16 16 17 17 16 15 13 13 12 13 13 12 12 12 13 13 13 10 9 9 10 9 8 7 6 7 9 10 10
7 5 5 7 7 7 7 8 7 7 4 6 6 4 8 7 5 7 9 10 9 6 7 6 2 3 9 7 7 9 12 16 16 16 15 13 14 17 17 17 16 15 15 16 18 19 20 20 21 21 20 19 18 16 15 16 17 18 19 19 19 19 20 20 20 20 18 16 15 15 15 15 16 15 13 12 12 11 11 11 11 12 13 14 12 10 9 7 7 8 8 8 6 7 8 10 10
6 5 5 6 8 7 7 8 6 7 3 6 5 6 9 8 7 9 7 5 7 9 4 6 5 3 8 8 10 17 18 18 18 17 16 14 16 18 17 16 15 14 15 17 17 18 19 20 21 21 20 19 18 16 15 15 16 17 18 19 19 19 19 20 20 19 18 16 14 14 14 14 13 13 12 10 10 9 9 11 12 13 13 14 12 10 9 7 6 6 8 8 7 7 8 10 11
5 6 6 6 8 7 5 7 5 3 5 5 5 8 10 10 9 6 4 2 6 12 6 9 7 8 13 15 17 22 20 19 19 17 16 15 15 18 16 14 15 14 14 16 16 17 18 19 20 19 20 19 18 17 15 15 15 16 16 16 17 18 18 19 19 17 16 14 13 14 13 13 12 11 10 9 9 9 10 11 12 12 13 14 13 10 9 8 7 6 7 9 9 8 9 10 11
5 6 7 7 8 6 4 6 3 2 8 4 4 6 8 10 11 6 7 7 7 13 11 8 8 13 16 19 20 21 20 19 19 17 16 14 13 15 15 13 13 14 15 15 16 17 17 18 17 18 19 18 18 17 16 15 14 14 14 14 14 15 15 16 16 13 13 12 12 14 13 13 13 11 12 11 9 9 10 11 11 11 12 13 13 11 10 9 8 7 8 9 9 9 10 10 10
7 7 6 7 7 3 1 2 3 4 5 3 4 4 5 8 12 8 11 11 10 11 13 11 10 15 16 19 19 19 19 18 18 16 14 13 12 13 15 14 13 14 15 15 16 17 15 15 14 15 16 17 17 17 16 16 15 15 14 13 13 13 13 13 14 13 12 12 12 14 13 13 13 12 14 12 11 12 10 10 11 11 11 12 14 13 11 10 9 8 8 10 10 10 10 7 8
8 8 6 8 6 0 2 3 4 4 2 2 3 3 3 5 7 8 11 10 11 11 12 11 10 15 15 16 17 18 18 16 16 14 13 12 11 11 13 15 14 14 15 14 14 13 11 10 11 12 13 15 16 14 14 14 14 14 13 13 13 14 14 13 14 13 12 12 12 13 12 12 12 11 13 13 13 13 11 11 11 12 11 11 14 14 12 11 10 9 9 11 11 9 8 7 8
8 8 9 6 2 1 4 4 2 3 2 2 2 5 5 6 4 6 11 10 11 11 12 13 11 14 16 16 16 16 16 15 14 13 11 10 11 10 11 13 12 12 12 10 8 8 8 7 8 9 10 13 12 9 8 10 12 11 11 11 10 13 14 13 14 12 12 13 13 13 11 11 10 9 12 14 13 12 12 13 12 12 11 11 14 14 13 12 11 10 10 13 12 9 9 8 7
7 8 12 7 2 3 6 6 3 2 2 1 2 4 3 6 7 8 11 8 5 5 8 11 13 12 13 16 15 15 14 13 12 11 11 10 10 9 9 11 11 10 9 8 8 8 10 9 8 8 10 12 10 7 6 9 10 9 11 13 12 12 12 14 15 13 13 15 15 15 11 10 10 10 13 15 13 12 12 13 13 13 12 12 14 14 13 13 12 12 12 13 13 11 9 7 7
8 7 11 9 5 5 4 6 5 2 4 2 1 1 1 6 9 9 9 4 4 4 9 12 14 11 12 16 14 14 13 11 11 10 11 10 9 9 8 9 9 8 8 10 10 10 11 12 12 11 12 12 11 9 8 9 10 11 13 14 15 15 14 16 16 13 13 14 16 14 11 10 11 12 15 16 14 14 13 13 13 14 13 13 15 15 13 14 13 13 13 13 13 11 9 8 7
10 8 9 9 9 7 3 5 5 5 4 1 1 1 6 8 7 9 6 7 6 6 11 12 14 10 11 15 14 13 12 11 10 9 10 9 9 8 7 6 6 8 11 11 10 12 11 10 11 11 11 10 9 8 7 9 12 13 14 14 14 14 15 15 12 12 13 14 14 13 12 12 11 12 16 17 16 15 14 13 13 13 13 13 15 15 14 14 14 13 13 13 12 11 9 9 8
12 11 8 7 9 8 6 5 5 6 4 2 3 4 7 4 3 10 8 8 9 9 14 13 13 11 11 13 14 13 12 10 11 10 10 9 9 8 7 7 5 7 12 11 10 11 10 9 8 8 8 8 8 8 8 10 13 14 13 14 13 12 12 12 11 11 13 13 13 12 13 13 11 10 14 17 16 15 14 12 12 12 12 12 14 14 14 15 14 13 13 13 12 11 11 9 8
11 13 10 6 8 8 8 7 7 7 5 4 6 6 6 4 3 9 11 10 10 11 15 16 15 15 13 13 13 12 11 10 11 11 10 10 9 8 7 7 5 6 10 11 10 8 9 9 9 9 9 9 10 11 11 11 12 12 11 12 12 10 10 11 11 11 12 11 12 14 13 13 11 10 12 13 13 14 12 10 10 11 11 11 12 13 14 14 14 14 13 13 12 11 11 10 8
5 11 13 10 8 8 9 10 10 9 7 6 7 8 7 8 8 7 11 11 11 12 13 15 15 14 13 13 12 11 11 10 11 11 10 9 8 8 7 6 5 5 7 8 9 9 9 10 11 12 13 13 13 13 13 11 11 12 11 10 9 8 11 12 9 9 10 9 11 13 12 13 14 13 12 10 9 9 8 9 9 9 10 9 10 11 12 13 14 13 12 13 14 13 11 10 10
3 7 11 12 10 8 10 11 11 9 8 9 8 7 8 10 11 7 13 13 12 13 13 14 13 12 11 12 12 10 9 11 11 11 10 9 8 8 7 6 5 6 7 6 7 8 9 8 9 9 10 10 11 11 11 11 11 11 10 9 8 8 11 11 9 9 10 8 9 10 12 15 16 15 13 9 9 9 9 10 9 7 7 8 9 10 11 12 13 13 12 14 15 13 12 10 10
7 6 8 12 12 10 12 12 11 10 10 12 10 7 9 12 11 8 15 13 12 13 13 13 12 10 9 10 10 9 9 10 10 10 9 8 7 8 6 6 5 5 6 6 7 7 7 7 7 6 6 7 9 9 9 10 10 10 9 9 9 9 8 9 9 9 9 9 8 9 10 14 15 15 14 11 9 10 11 11 12 11 9 10 11 10 9 10 12 13 13 14 15 14 13 11 10
9 8 9 10 11 11 14 13 13 13 10 12 12 8 9 14 12 11 13 12 13 13 12 12 11 9 8 8 9 9 10 9 9 9 9 8 8 9 7 6 5 4 5 5 5 5 4 5 6 6 7 7 8 8 8 8 8 8 7 7 7 7 7 7 8 8 8 8 7 7 8 10 14 15 15 14 11 11 11 10 12 14 13 12 11 10 10 10 12 14 14 14 16 15 13 12 11
10 10 9 8 8 10 16 16 16 15 10 12 13 8 9 15 14 13 13 13 13 12 12 13 11 9 8 8 8 9 10 9 10 10 9 9 9 9 8 6 6 5 5 4 4 4 3 2 3 4 5 6 7 7 7 6 5 5 6 7 7 7 7 7 7 7 8 8 8 9 8 7 11 13 13 15 14 13 12 10 11 13 13 13 14 14 14 13 12 13 15 15 15 15 13 13 13
9 9 8 9 8 9 17 18 17 16 11 13 15 9 9 17 17 15 13 13 13 12 12 13 12 9 7 7 8 8 9 10 11 11 10 10 9 9 9 7 7 6 5 4 3 3 2 1 0 2 3 4 6 6 6 6 5 4 5 7 7 7 7 8 8 9 9 9 10 11 10 9 10 11 10 13 15 15 14 12 12 14 15 15 16 17 18 18 14 13 15 16 16 17 15 14 14
9 9 8 10 10 8 15 18 18 18 13 14 17 12 9 15 17 15 14 14 14 13 13 14 12 11 9 7 8 8 9 10 11 12 11 11 10 9 9 8 8 7 5 4 3 2 1 1 1 2 3 3 4 5 6 5 5 4 4 6 7 7 7 10 11 10 9 8 9 10 10 9 8 8 8 11 15 16 15 14 13 15 17 17 18 17 18 19 17 14 15 16 17 17 16 16 16
9 9 8 10 13 10 12 16 17 20 15 14 19 18 9 14 17 14 14 13 13 13 14 15 10 8 11 9 9 9 9 9 10 12 12 11 11 9 8 8 7 7 6 4 4 2 1 1 0 2 3 3 3 4 4 4 4 4 4 5 7 7 8 10 11 10 9 8 9 9 9 8 6 7 9 11 13 16 17 16 15 16 18 19 19 18 17 18 18 17 17 17 18 19 18 19 17
10 11 9 9 13 13 12 15 17 20 17 14 18 20 9 13 15 13 13 12 12 12 12 16 11 9 10 10 9 10 10 10 9 12 13 11 11 10 9 8 7 6 6 4 4 3 2 2 1 1 3 3 2 3 3 4 4 5 5 5 6 7 8 8 8 10 10 8 8 9 9 9 7 7 8 10 12 15 16 16 16 15 16 19 20 20 19 18 19 20 19 19 21 21 20 19 16
12 13 11 10 11 12 11 14 18 20 16 14 17 18 9 12 11 12 12 11 11 12 12 14 12 10 10 9 9 9 10 10 9 12 13 11 10 10 10 8 6 5 4 4 4 3 2 3 2 1 1 2 1 2 2 4 5 6 7 6 7 7 7 7 6 8 9 8 8 8 9 9 8 7 8 10 11 13 14 16 17 17 16 19 20 21 21 21 20 21 20 20 20 20 18 15 15
12 13 13 11 9 11 12 14 19 20 14 13 18 19 12 13 12 12 12 11 11 12 14 13 10 9 9 10 10 9 10 9 10 12 12 12 10 10 9 8 6 5 4 2 3 2 2 2 2 2 1 1 1 2 2 3 4 5 7 7 8 8 6 6 6 7 8 7 7 8 8 8 9 7 7 9 11 13 14 15 18 18 17 19 21 21 21 21 21 20 20 21 19 18 18 15 14
10 11 12 11 9 12 12 11 17 20 14 12 17 19 13 14 13 12 11 11 11 11 12 13 10 10 9 11 10 9 9 8 10 11 11 11 10 10 9 7 6 5 4 2 2 3 2 2 2 2 1 1 1 2 3 4 5 5 6 7 7 7 6 5 6 6 6 6 6 7 8 7 7 7 8 9 11 13 14 15 18 18 18 19 21 22 20 20 20 20 20 20 19 19 21 19 15
10 9 10 10 9 11 10 11 14 16 12 11 16 17 11 12 11 12 13 12 10 9 11 14 13 11 9 11 10 9 10 8 9 9 10 10 10 10 9 7 6 5 5 4 3 4 3 3 2 1 0 1 2 2 3 4 4 4 6 7 7 7 6 6 6 6 6 6 7 8 8 8 8 9 10 10 11 13 15 16 16 17 17 18 20 21 20 19 19 20 20 20 21 21 21 21 18
10 9 9 9 11 13 10 12 14 15 11 11 16 14 9 10 9 10 11 9 9 8 8 10 13 12 10 11 10 9 10 8 8 7 9 10 9 9 9 8 7 5 5 5 4 4 3 3 2 0 1 2 2 2 2 4 4 4 6 7 7 8 8 8 8 8 8 8 9 10 11 12 12 12 13 12 12 13 15 15 15 15 17 19 20 20 19 19 19 21 23 22 21 21 20 19 19
11 12 10 9 12 14 10 12 12 13 13 14 13 13 9 11 12 10 8 6 8 9 8 8 11 13 11 11 11 11 10 8 8 7 7 9 8 9 9 8 8 7 6 5 5 4 2 2 2 1 1 1 1 2 2 3 4 4 5 6 7 8 9 10 10 10 9 9 10 11 12 14 14 14 13 12 12 13 15 16 15 16 18 19 20 19 20 21 20 21 25 24 22 22 21 20 20
11 13 13 12 13 13 11 16 13 9 12 15 12 12 10 11 14 12 10 9 10 10 11 10 11 12 11 10 10 12 11 8 8 8 7 8 9 9 9 8 8 8 7 5 5 3 2 2 1 1 1 1 2 2 3 3 4 5 6 6 7 8 9 9 9 10 10 10 10 10 11 12 14 15 15 15 15 15 17 17 16 17 18 19 19 19 19 21 21 22 24 24 24 24 21 18 16
9 12 16 16 13 13 13 17 14 8 11 14 12 11 8 10 14 15 14 13 13 11 10 11 12 12 11 10 10 11 11 9 8 9 9 8 8 9 10 9 9 9 7 5 4 3 2 2 1 1 1 2 2 3 3 4 5 5 6 7 9 10 10 10 9 9 10 10 11 10 11 11 13 14 16 17 17 17 18 19 17 18 20 20 21 21 21 21 21 22 23 23 23 23 21 17 13
7 12 17 16 13 14 14 14 12 8 9 13 15 14 9 8 12 15 16 14 14 12 9 10 10 10 10 10 10 10 10 9 9 9 10 10 10 10 10 10 9 8 6 5 5 4 3 3 3 3 2 2 3 3 3 4 5 6 7 9 10 11 12 12 12 11 11 11 12 11 12 12 12 14 15 16 16 18 20 20 18 17 21 22 22 23 24 22 20 19 21 22 20 20 23 22 16
9 12 16 13 11 13 15 13 10 10 10 11 16 16 10 7 10 13 16 15 14 14 12 11 11 11 11 11 11 11 10 10 10 10 10 10 10 10 10 9 8 6 5 5 4 3 2 2 3 3 4 4 3 3 4 5 6 7 9 10 11 12 13 13 13 12 12 12 13 13 13 13 13 13 14 15 16 18 20 21 20 19 22 23 23 24 25 24 23 22 23 23 21 20 23 22 18
13 13 15 13 10 10 10 11 10 10 11 11 15 17 11 8 11 12 14 15 14 13 12 11 12 12 11 10 11 11 11 10 11 10 9 10 9 9 9 8 7 6 5 5 5 4 3 2 2 3 4 5 5 5 5 6 6 7 9 11 11 12 13 13 14 13 13 13 14 14 14 14 14 14 15 16 16 17 19 21 22 22 23 23 23 25 24 24 25 26 27 26 23 22 23 20 17
17 11 12 13 12 9 8 9 9 9 11 12 15 18 14 8 8 11 12 13 14 12 11 11 12 12 10 9 9 10 10 9 9 9 9 10 10 9 9 9 9 7 6 6 5 4 3 2 2 3 3 4 5 6 6 7 8 8 10 11 12 13 14 14 15 15 14 14 14 15 15 15 14 15 15 16 16 17 19 20 21 23 24 23 24 24 25 25 25 26 26 25 24 24 23 20 16
17 9 10 12 10 9 8 7 9 9 10 13 15 18 18 10 7 10 11 14 17 13 12 14 14 13 10 9 9 9 10 9 9 8 9 10 10 10 10 10 10 9 8 7 6 5 4 3 3 3 3 4 5 6 7 7 8 9 10 11 12 14 15 15 17 18 17 16 16 16 17 16 15 14 14 14 15 16 18 18 20 22 23 22 22 23 25 26 25 25 25 23 23 23 22 19 16
16 11 11 12 9 9 9 9 9 9 9 12 16 18 16 8 4 11 11 12 15 13 12 14 15 14 12 11 10 10 10 10 9 9 9 8 8 9 9 9 9 9 9 8 7 6 5 5 4 4 4 5 6 6 7 7 8 9 10 11 12 14 15 16 18 19 19 18 18 17 17 17 16 15 14 14 15 16 18 19 19 21 21 21 21 21 23 25 25 25 24 24 22 21 20 17 16
15 13 12 11 10 9 10 10 9 9 9 12 17 17 11 3 5 13 15 13 13 12 11 13 14 15 13 13 12 11 11 10 9 9 8 7 8 9 9 9 9 9 8 8 7 7 6 6 6 6 5 6 7 7 8 8 8 9 10 11 12 13 15 16 18 19 19 19 19 19 18 18 18 17 15 14 14 15 17 17 17 18 19 19 19 19 21 24 25 25 24 24 21 18 17 17 17
14 13 12 11 10 8 9 9 9 10 9 10 15 13 7 7 8 11 14 14 14 12 11 13 14 14 13 12 12 12 11 10 9 9 9 9 10 10 9 9 9 8 9 8 8 8 7 7 7 7 7 7 8 8 9 9 10 10 10 11 12 13 15 16 17 19 19 20 20 20 19 20 20 17 15 13 12 13 15 15 15 17 19 18 18 19 21 23 24 25 25 23 20 17 16 16 17
12 12 12 11 11 9 8 8 6 8 9 9 9 3 4 7 8 9 12 14 15 14 13 13 14 14 12 11 11 10 10 10 10 9 9 10 10 10 10 10 9 9 9 9 9 8 8 8 8 8 8 8 9 9 10 10 11 11 11 12 12 13 14 15 17 18 19 20 21 21 20 21 21 19 16 13 11 13 13 13 14 15 16 17 18 18 20 23 23 24 24 21 19 17 16 16 17
10 12 12 11 13 11 9 7 5 5 9 9 7 5 6 6 6 8 12 14 15 15 14 13 13 13 12 11 10 10 10 10 9 9 8 9 10 10 10 10 9 9 9 9 8 8 8 8 8 9 9 9 10 10 10 11 11 12 13 13 13 13 14 16 18 19 21 22 21 19 19 20 20 20 17 14 12 12 12 12 13 14 15 16 17 17 19 22 22 22 21 19 19 17 15 16 15
10 11 12 11 12 12 8 8 6 7 9 9 10 9 9 8 6 8 13 14 15 15 14 13 13 13 12 11 10 10 11 10 9 9 8 9 10 9 9 9 9 9 8 8 8 8 8 9 9 10 10 11 11 12 11 11 12 12 13 13 14 15 15 16 18 19 20 21 20 17 18 21 21 18 17 15 13 12 11 11 12 13 14 15 15 16 17 19 19 19 19 18 17 16 14 14 14
14 10 11 10 11 12 9 7 9 10 9 8 11 11 8 8 7 11 15 16 16 15 14 13 13 13 12 11 11 11 10 9 8 8 7 8 9 9 9 9 9 9 8 8 8 9 9 9 9 10 10 11 12 12 12 12 12 12 12 14 16 18 18 17 19 19 19 19 18 17 18 20 20 17 17 16 14 12 10 11 12 12 14 14 14 16 17 16 17 18 17 16 16 16 14 13 12
16 12 13 11 10 10 9 8 8 9 9 8 10 12 9 8 11 16 18 18 18 16 14 13 13 13 12 10 10 10 9 8 7 7 7 7 8 9 9 9 9 8 9 8 8 8 9 9 9 10 10 11 12 13 13 13 13 13 14 15 17 18 19 19 19 20 18 17 17 17 17 18 18 17 16 15 13 11 10 11 12 13 14 14 14 14 15 14 15 15 15 15 15 15 14 12 12
13 12 14 12 9 9 9 9 8 9 10 8 9 10 5 3 9 17 18 18 18 16 14 13 13 13 12 11 10 9 8 8 7 7 7 7 8 9 9 8 8 7 8 8 8 8 9 9 10 10 11 12 13 13 13 13 14 14 15 16 17 18 19 18 18 19 18 17 18 18 17 16 16 16 14 13 12 10 9 10 12 11 12 13 13 12 12 12 12 12 13 14 13 13 12 12 13
13 10 11 12 11 10 10 10 9 9 9 8 8 7 3 3 3 12 16 16 17 16 15 14 14 14 13 11 10 9 8 8 7 7 7 7 8 8 8 7 7 8 8 8 8 8 9 11 10 10 11 12 13 14 14 14 14 14 15 16 17 17 18 17 18 18 18 18 19 19 18 16 15 14 13 13 11 9 8 9 10 10 11 11 12 11 11 11 11 11 13 14 13 13 13 12 13
Wind_Direction
307 272 263 256 257 262 254 237 254 232 233 260 260 267 268 254 220 269 262 232 262 126 75 306 213 277 285 323 41 72 45 13 5 358 76 111 149 126 111 128 126 130 136 133 135 136 141 150 152 153 154 154 154 153 154 153 153 154 154 151 149 144 138 130 126 126 124 122 119 120 125 123 120 120 114 115 126 123 112 111 111 111 111 110 108 107 106 104 101 101 104 105 104 100 91 84 80
264 249 245 248 249 254 256 214 257 257 243 257 248 260 249 128 163 245 254 36 33 71 100 280 147 221 330 319 354 93 66 48 61 69 93 120 129 118 120 132 129 130 134 135 140 137 139 148 151 154 153 156 156 154 154 154 155 155 154 153 151 145 139 132 130 130 126 123 121 122 125 123 121 119 118 123 131 130 118 114 115 114 112 110 109 106 104 101 98 98 101 102 102 99 90 84 80
251 249 236 236 239 241 266 237 249 260 256 260 256 270 219 158 224 214 81 48 43 84 155 156 141 171 191 189 161 90 73 62 82 93 106 128 126 119 130 134 129 130 133 138 142 140 145 152 154 154 154 157 156 156 155 155 157 155 155 154 150 145 140 135 133 132 127 123 123 126 127 125 124 123 126 128 128 127 121 118 118 116 114 112 110 107 105 103 99 96 97 99 98 97 91 86 81
236 251 245 248 239 225 244 243 240 255 258 264 263 316 67 219 162 101 84 47 75 156 175 176 152 147 281 109 85 81 80 70 82 96 109 123 124 126 134 135 130 130 136 143 144 141 147 156 155 155 156 157 158 159 158 158 157 154 155 153 149 146 141 137 136 134 129 127 130 132 131 130 130 131 132 129 125 122 122 121 120 119 117 115 113 110 109 107 100 94 92 93 92 93 90 85 83
238 243 242 257 254 240 248 244 241 246 250 264 265 32 45 221 113 95 94 125 160 180 183 192 157 132 59 34 39 69 86 97 84 86 103 109 121 130 134 136 132 133 141 143 141 140 148 156 156 158 158 157 159 159 158 158 154 153 152 150 148 144 140 140 141 137 133 136 138 137 136 136 137 138 137 133 129 124 123 121 121 122 119 116 114 112 110 108 100 92 90 92 93 91 86 84 84
236 232 223 247 266 297 268 246 241 242 248 254 262 1 40 91 93 93 121 152 162 174 180 203 188 139 112 60 57 51 28 82 95 93 111 118 129 132 133 138 134 134 140 142 141 141 149 157 159 161 159 157 156 154 155 154 152 152 150 151 148 144 142 142 145 140 140 144 142 141 140 142 143 145 143 140 137 131 127 123 120 118 116 115 111 110 111 109 101 94 92 93 97 89 81 84 84
237 233 205 227 248 257 246 247 246 249 245 239 256 327 75 109 85 146 178 178 173 174 187 210 203 141 120 106 82 56 29 43 88 101 115 126 133 132 134 136 134 136 141 143 142 143 152 160 161 161 160 159 156 154 154 154 153 152 152 153 151 149 144 142 145 143 148 149 146 145 145 147 148 150 151 148 144 137 132 127 122 117 114 113 110 114 116 108 101 99 92 88 88 81 77 84 86
241 246 220 229 236 214 233 246 246 255 239 200 266 324 39 103 93 226 206 197 181 171 180 182 210 195 126 116 84 65 51 55 83 103 117 127 130 133 134 135 136 141 143 140 140 148 157 162 163 163 162 162 160 158 157 157 155 154 155 154 152 147 142 141 143 146 150 151 150 149 150 153 152 153 156 154 149 145 140 134 132 128 124 118 121 122 113 104 103 103 93 83 77 76 82 86 88
229 233 238 242 247 227 232 244 240 248 239 189 238 236 238 242 230 225 222 210 179 181 183 168 200 217 123 106 92 87 68 73 100 111 122 128 130 135 135 138 140 142 142 136 139 149 156 162 166 166 164 164 162 162 161 161 159 158 157 154 150 144 141 142 145 147 150 153 154 153 156 157 155 158 160 159 155 153 150 144 142 142 142 132 129 122 108 102 106 105 95 83 74 76 81 86 94
218 217 243 239 248 244 235 242 237 240 241 239 223 199 207 220 220 214 224 211 178 200 188 163 201 187 116 105 103 95 78 101 116 116 124 127 131 137 137 139 141 142 139 134 138 144 150 161 167 166 166 166 164 165 164 164 162 160 159 155 150 147 148 149 151 149 149 154 157 160 161 159 159 161 164 165 161 160 159 155 152 154 158 142 131 121 108 105 106 106 98 88 79 78 82 90 99
220 202 247 249 238 244 241 243 233 228 224 222 207 196 205 210 218 216 221 216 186 196 177 166 202 163 114 99 95 93 101 119 123 125 128 130 134 136 137 137 138 140 137 137 140 142 147 157 163 165 166 165 166 166 166 166 163 162 160 155 154 154 155 155 154 151 150 152 159 165 165 164 164 164 169 172 171 168 167 166 164 165 161 144 133 120 110 108 105 107 103 96 87 84 87 93 101
236 199 219 242 239 239 245 252 241 223 179 195 201 182 193 204 216 215 214 210 186 193 175 171 200 171 132 108 105 113 119 123 124 129 132 133 135 136 135 134 137 137 137 140 142 144 147 151 158 162 165 165 166 167 167 168 166 166 162 158 160 159 160 159 156 155 156 155 158 166 170 170 166 166 170 173 176 173 171 171 171 168 157 147 138 122 113 110 107 109 109 102 92 89 91 94 102
240 225 220 231 247 248 249 257 253 254 213 208 177 139 189 209 210 210 210 199 187 198 174 169 190 138 116 103 121 130 125 124 126 131 133 133 135 134 132 133 136 138 141 143 145 148 149 151 154 158 164 165 166 169 169 169 169 169 165 163 163 163 165 164 160 160 161 161 159 165 172 173 169 168 170 172 177 177 176 174 171 167 157 151 143 127 116 113 114 116 114 109 97 92 92 95 103
234 243 248 242 245 249 257 257 237 242 236 178 126 127 214 209 211 213 210 192 185 188 142 139 147 115 112 118 140 142 134 134 133 132 132 135 136 133 130 133 137 141 146 148 150 151 152 154 154 157 161 162 164 167 169 171 170 168 168 168 167 167 169 167 164 164 166 166 163 163 167 171 172 173 174 175 177 179 179 176 172 168 162 155 147 134 124 119 119 121 122 117 105 95 93 97 103
238 250 256 256 249 244 239 245 249 241 206 125 130 189 212 199 202 211 216 205 165 120 102 98 344 135 139 156 161 145 143 139 136 135 135 139 136 129 128 134 140 145 150 152 154 156 157 156 154 157 159 161 163 163 167 172 172 170 173 174 172 171 172 170 166 167 170 168 165 163 163 166 170 172 173 172 176 181 177 178 176 171 167 158 151 141 133 131 125 125 129 126 115 103 97 100 105
246 261 244 246 250 246 218 218 244 242 157 110 146 183 200 180 187 202 208 229 124 115 110 84 31 13 101 106 122 131 140 138 135 137 137 141 137 129 129 138 143 148 156 157 159 160 161 160 157 158 160 163 163 163 165 170 175 173 176 178 175 174 174 173 170 172 174 170 166 163 162 157 162 169 169 174 186 187 176 182 184 177 173 164 158 153 145 149 147 133 134 134 122 111 102 103 106
231 249 240 233 240 243 205 187 212 217 103 103 143 182 202 167 184 203 151 218 143 129 84 58 60 59 87 103 117 128 138 138 137 141 141 144 141 136 136 144 146 151 162 163 166 165 163 164 159 159 162 164 163 162 162 168 177 173 175 179 178 177 175 175 174 175 174 172 170 164 157 152 162 167 164 180 192 187 185 188 191 186 179 170 166 165 160 160 164 153 147 143 128 119 110 105 105
217 229 234 228 233 232 196 177 197 71 85 87 117 184 217 164 177 185 163 192 158 135 115 98 91 83 96 113 122 129 137 140 144 147 145 150 152 146 143 148 154 162 170 170 173 170 167 168 163 160 162 165 164 160 162 166 172 169 170 174 178 180 176 177 175 175 173 172 175 170 166 167 172 170 169 182 179 174 188 192 193 192 184 175 171 172 173 169 170 170 161 153 140 125 114 109 107
219 229 229 229 236 217 152 97 55 44 73 65 108 181 239 169 168 168 188 185 160 157 137 132 114 105 110 115 124 132 138 144 150 152 150 157 160 156 148 151 164 170 176 178 177 173 169 169 164 161 161 167 164 159 162 162 165 168 168 169 174 180 177 178 177 177 178 176 180 181 183 183 177 176 177 178 173 172 185 196 196 196 194 182 176 178 181 176 174 178 172 162 150 131 124 133 131
222 235 234 232 245 160 89 51 47 43 44 29 104 182 222 160 160 173 195 180 175 185 147 147 135 124 125 121 131 137 141 148 153 156 157 159 159 162 151 153 171 177 180 181 176 170 167 162 158 164 163 166 163 158 160 158 165 167 165 170 175 182 179 182 184 181 184 182 187 196 198 190 181 180 177 171 172 177 185 198 201 198 199 190 181 180 183 181 180 185 181 171 161 152 161 173 161
219 227 237 237 299 280 179 170 115 69 3 355 109 188 172 149 174 196 200 185 189 193 161 162 143 130 132 131 139 141 146 152 156 159 159 158 155 162 152 152 172 178 178 169 152 152 154 149 156 175 170 167 161 155 163 159 165 166 164 175 186 192 187 188 191 187 189 187 194 208 208 198 192 181 176 175 174 177 182 184 187 189 190 192 184 179 185 186 185 191 188 179 180 192 199 193 173
229 224 246 274 348 239 175 154 135 102 239 261 192 200 140 165 190 207 211 195 185 171 141 132 124 133 136 134 141 145 151 153 159 162 157 156 151 155 149 150 166 171 165 138 132 152 154 150 158 178 179 176 163 153 185 172 166 171 172 184 193 196 196 197 197 194 195 196 201 209 208 208 211 197 184 186 183 182 184 179 179 180 180 186 184 182 188 189 189 192 190 189 199 214 209 195 185
239 222 238 264 263 235 155 145 149 172 225 211 236 277 146 200 188 201 214 140 83 103 102 104 113 127 136 137 144 148 152 153 158 162 153 149 148 153 149 149 160 157 134 121 144 162 162 166 164 170 181 183 170 164 183 176 175 183 183 192 198 197 200 203 203 201 206 208 209 211 207 206 212 210 199 196 194 190 190 188 183 179 178 182 183 188 192 189 195 196 193 199 208 216 206 193 189
235 238 223 230 234 234 184 165 168 191 231 237 275 213 194 209 180 188 194 104 116 113 100 105 105 117 148 145 144 146 148 151 153 150 143 140 141 146 143 139 144 129 111 117 153 159 163 173 161 165 182 180 175 180 178 174 189 195 191 197 203 205 206 210 214 213 218 218 213 212 214 211 209 216 213 204 195 192 195 196 189 182 181 183 184 192 196 191 198 201 197 205 212 217 208 196 193
224 246 243 218 218 225 219 209 196 203 224 219 222 203 187 201 173 177 163 116 128 115 112 122 120 143 168 145 139 143 145 151 149 142 137 132 130 139 134 124 132 124 121 134 154 153 158 162 151 160 173 168 177 193 188 187 201 203 197 198 201 208 215 220 223 217 217 217 212 210 217 221 221 228 227 216 203 198 198 197 194 189 186 188 188 193 199 194 199 202 200 207 214 216 209 198 195
214 230 243 231 215 214 217 214 206 207 206 198 200 196 174 156 188 173 150 128 132 129 128 137 146 159 157 134 134 140 144 149 143 139 136 128 126 135 128 120 140 132 129 141 140 141 152 155 157 164 170 171 182 194 195 197 208 211 207 204 202 206 220 224 223 221 215 213 214 212 213 221 228 236 240 238 228 214 199 195 201 195 192 194 193 196 201 197 199 204 200 204 209 212 208 198 195
205 224 233 232 225 205 206 209 200 202 197 197 202 191 163 161 197 180 136 135 147 146 140 144 148 145 134 129 134 138 145 145 140 138 131 133 136 133 124 121 138 122 121 137 138 145 155 160 168 174 181 181 183 190 191 198 210 217 216 210 210 214 225 224 219 225 220 217 222 219 217 221 227 229 234 243 238 223 201 204 208 198 196 197 200 202 202 200 200 203 201 202 205 206 207 201 199
233 234 234 226 230 210 203 208 198 202 196 196 208 189 157 170 209 195 143 149 162 155 152 152 138 125 128 130 131 136 142 138 139 140 135 144 146 134 129 127 129 117 116 124 130 139 151 165 177 182 186 182 185 190 188 198 207 216 221 217 225 229 229 225 222 228 227 227 230 228 226 225 228 227 229 231 218 208 204 214 215 207 203 197 206 214 208 202 202 203 202 206 206 203 207 205 203
242 233 237 218 218 219 208 207 200 206 195 184 203 195 167 185 205 169 144 156 168 163 162 150 126 120 132 129 130 134 134 135 139 143 144 145 136 129 129 124 118 113 114 121 129 135 147 164 181 190 192 197 202 201 199 206 210 216 222 221 231 234 231 235 240 243 244 246 238 232 225 219 224 228 229 228 215 205 204 215 215 209 207 201 208 225 223 206 205 206 203 208 210 205 207 205 204
235 219 238 219 206 214 206 204 201 203 187 169 199 207 174 191 190 145 143 165 172 171 167 145 127 130 138 133 131 130 132 140 143 144 144 137 128 130 130 124 120 110 111 123 136 139 150 164 183 193 195 207 211 212 216 218 219 225 232 235 240 242 242 252 261 262 265 268 255 242 232 217 221 225 226 225 221 212 205 215 218 208 203 203 202 215 230 225 215 211 205 210 213 208 203 200 204
224 216 230 228 216 204 192 198 198 197 177 165 206 222 175 187 181 152 157 175 175 177 169 146 137 140 137 132 130 131 137 141 141 139 136 129 126 129 133 132 126 115 112 120 130 130 135 155 192 203 201 212 216 222 231 230 232 242 251 254 254 253 255 266 278 281 278 278 269 255 245 231 226 226 228 230 227 220 208 206 215 211 204 205 202 202 215 226 230 222 211 211 217 215 206 200 204
214 218 216 220 234 198 181 191 194 193 175 173 208 228 188 184 173 159 166 180 178 180 173 151 148 145 128 132 136 135 136 136 134 132 131 129 128 132 136 138 132 123 119 121 124 124 125 134 271 262 241 239 237 243 249 246 245 255 263 268 269 267 275 282 281 282 281 278 277 270 258 246 238 232 231 235 232 225 218 210 210 213 211 209 208 206 209 215 225 232 224 216 218 220 211 205 205
206 221 216 207 224 206 176 182 191 194 180 180 208 230 207 173 162 161 173 185 181 183 175 147 143 150 146 151 147 139 138 137 135 135 137 133 128 132 134 135 133 128 128 130 131 127 131 178 287 290 273 264 258 260 264 261 258 262 270 277 274 271 285 286 275 274 278 276 276 277 269 256 250 243 234 240 239 227 222 221 218 218 218 215 213 213 211 213 215 227 237 230 224 223 216 211 206
199 213 222 207 214 216 174 171 188 196 191 185 204 235 232 149 150 166 179 188 185 191 173 134 133 167 163 161 152 145 141 138 140 139 137 131 124 126 127 129 132 133 136 139 138 136 137 156 202 289 286 283 278 276 277 281 283 280 275 267 266 269 276 279 275 275 280 281 277 276 271 262 258 253 238 239 242 233 225 225 225 224 225 221 218 217 213 213 212 219 236 239 235 232 221 214 206
200 202 217 207 207 215 179 168 188 195 197 188 199 232 229 137 150 170 183 189 186 196 162 130 148 176 163 160 149 141 135 132 137 133 127 125 125 126 125 127 132 135 136 140 142 146 145 139 139 280 297 296 298 298 292 294 296 291 280 260 258 261 261 270 279 282 284 280 273 271 268 261 254 255 249 239 238 238 230 225 227 226 226 223 220 220 216 213 211 212 223 231 238 239 225 214 205
205 200 215 211 199 212 188 172 186 189 195 190 198 220 187 140 167 173 183 191 187 191 156 137 161 166 156 151 132 125 126 121 126 127 124 126 128 125 127 130 130 126 126 135 139 141 141 140 146 140 313 308 316 325 316 298 292 287 280 267 259 254 254 266 272 277 279 266 257 263 266 262 254 248 249 243 236 237 232 228 230 227 225 224 221 219 217 215 213 213 218 222 234 245 237 220 206
215 202 213 219 196 210 202 177 179 181 195 192 197 214 178 152 178 171 175 184 192 191 151 138 163 167 160 143 125 119 117 113 120 124 123 125 127 125 125 127 123 121 121 134 137 136 136 137 139 115 58 327 327 323 301 264 264 274 274 270 265 258 256 267 265 262 259 250 251 259 261 262 259 248 245 246 240 238 235 232 234 232 227 224 223 221 218 217 215 216 219 218 224 241 247 232 206
237 211 206 215 200 208 200 164 168 179 200 197 192 213 189 160 175 169 172 179 191 194 154 146 170 181 165 139 134 128 118 121 124 122 122 123 127 127 126 125 124 123 123 133 135 131 130 129 126 110 85 308 287 277 268 251 256 267 269 280 288 278 265 267 271 263 256 251 253 258 257 258 259 248 241 246 245 242 239 235 235 235 232 227 226 224 221 217 211 212 217 217 217 226 239 236 207
242 221 206 213 200 202 181 146 171 185 202 196 188 210 194 154 164 166 176 184 176 180 172 166 171 182 166 138 138 131 126 133 127 126 127 122 124 126 126 125 123 121 124 132 130 128 128 122 118 98 122 259 242 238 261 266 271 273 273 288 301 294 281 277 275 261 254 249 246 251 248 239 240 240 239 240 243 247 245 241 237 234 232 228 225 223 221 216 209 208 212 212 213 218 232 237 214
229 221 210 209 196 204 182 151 180 191 203 203 183 197 190 147 157 167 171 172 153 154 168 162 163 180 172 148 150 142 133 130 125 132 127 125 130 129 128 127 125 125 125 125 122 124 124 119 124 110 198 242 249 241 269 283 281 277 277 280 283 285 283 282 277 260 247 241 241 242 236 230 229 235 239 233 232 244 247 242 238 233 232 229 226 224 220 217 211 209 212 210 211 218 229 235 219
223 226 220 212 201 208 181 151 180 189 207 226 198 190 190 165 173 175 159 153 154 159 162 157 165 178 166 152 159 148 136 133 135 140 130 129 130 122 123 127 128 124 110 102 101 114 121 117 130 164 211 251 275 256 257 276 277 270 271 270 266 264 262 264 265 257 245 239 242 244 243 239 234 236 238 226 222 236 244 242 237 236 237 235 230 228 223 221 216 211 212 211 208 215 224 227 218
215 226 232 229 209 202 173 162 182 186 200 226 220 203 193 180 186 180 166 173 176 170 170 171 169 166 154 146 147 137 134 142 140 135 131 130 126 120 118 117 119 109 93 89 90 93 93 89 119 173 222 232 253 257 253 263 268 268 271 271 266 260 254 253 256 256 252 246 244 244 246 243 238 240 236 225 220 226 236 239 236 235 239 239 234 231 229 225 219 211 209 208 207 210 218 223 213
212 211 224 235 218 200 184 174 184 194 198 202 207 212 196 188 196 183 172 177 174 169 168 172 175 172 162 146 137 132 133 137 130 122 121 115 109 111 107 99 101 95 86 90 86 74 52 36 1 305 260 237 239 243 241 252 266 272 272 272 272 273 272 270 267 266 264 259 254 248 244 240 240 243 237 231 228 225 229 233 233 235 236 237 235 234 234 228 220 213 207 206 206 208 214 217 210
217 189 205 235 233 204 188 180 190 201 199 190 195 218 223 199 193 177 173 176 168 165 162 159 163 155 138 126 123 123 124 125 120 111 104 92 82 85 88 89 92 89 82 79 73 59 35 11 343 325 300 277 257 243 238 249 262 265 264 264 266 272 276 278 278 272 266 263 261 254 247 242 240 241 239 234 231 229 229 229 230 232 235 236 234 234 235 231 221 211 206 204 202 206 212 213 210
223 186 190 223 241 213 189 184 203 203 198 195 194 212 232 211 188 175 178 182 170 163 157 147 136 116 103 106 107 103 102 103 99 94 90 83 76 74 79 83 86 85 80 69 67 59 29 356 335 323 307 302 296 283 275 268 265 262 264 267 268 272 274 278 280 273 267 263 260 254 249 245 240 238 238 233 233 234 234 233 230 230 235 236 234 235 237 234 225 216 212 207 200 203 209 210 210
227 194 183 204 224 221 198 192 206 206 211 209 190 198 223 215 182 176 184 185 173 162 152 144 135 121 108 108 108 105 102 96 92 89 86 82 76 73 77 82 84 84 78 68 65 59 43 12 328 318 314 313 311 310 306 298 291 279 276 278 278 279 278 278 279 275 270 265 261 256 250 247 241 238 237 232 232 235 236 237 233 232 237 238 236 237 235 232 227 221 219 215 209 208 207 207 209
228 200 180 200 210 213 212 211 213 212 218 213 196 200 217 218 172 177 197 185 167 156 148 143 134 126 120 115 112 110 105 98 95 95 91 86 82 79 77 77 78 75 71 67 61 54 46 27 345 328 329 325 316 312 310 306 302 293 288 288 286 285 282 280 279 276 272 266 262 260 254 249 243 239 238 235 232 233 234 236 233 233 238 238 236 235 232 228 225 222 222 221 219 217 211 210 209
223 203 189 199 196 202 212 218 221 225 220 208 206 206 209 222 202 187 192 172 159 152 149 146 136 130 128 119 112 108 104 101 101 99 91 85 79 77 75 71 69 64 61 58 50 44 36 22 0 349 348 340 326 317 312 306 298 290 287 286 283 281 280 278 276 275 273 267 263 262 259 252 244 239 239 239 236 230 228 228 227 231 236 233 229 230 229 227 223 222 220 219 220 218 214 211 205
214 197 198 200 186 194 202 202 210 226 224 205 209 212 206 224 206 158 145 139 144 142 143 144 136 131 126 117 111 105 102 100 97 94 88 83 78 76 74 71 67 61 56 51 45 40 34 30 17 6 5 355 342 328 319 310 298 291 286 283 278 275 275 275 274 274 272 269 265 262 260 254 247 242 240 241 237 227 224 225 224 226 229 227 224 224 224 222 220 218 216 218 219 216 212 208 205
208 197 198 202 192 190 197 200 200 214 223 209 210 213 195 140 98 123 122 112 114 120 132 136 130 126 121 114 108 99 96 94 90 89 84 81 79 74 71 68 64 57 52 46 43 37 32 33 23 11 9 358 347 336 325 315 304 297 291 287 283 278 278 277 276 276 274 272 269 265 261 256 252 249 243 241 237 228 225 227 224 221 221 221 220 219 219 221 221 217 215 216 215 211 209 209 211
202 203 207 211 207 195 193 200 199 200 211 210 210 211 179 138 107 105 115 109 99 100 114 120 116 117 113 108 104 98 95 92 87 86 83 80 77 72 68 65 60 54 49 43 39 33 26 23 15 6 2 352 343 335 325 317 310 304 297 294 292 288 287 285 284 282 278 274 270 268 266 263 262 260 251 245 240 231 228 225 220 219 218 216 215 214 216 220 221 216 212 213 213 210 209 212 212
195 207 217 217 213 201 193 213 225 206 201 203 204 192 87 118 114 111 122 118 113 112 116 120 116 117 114 105 102 99 96 94 89 86 84 81 77 72 66 61 56 49 44 40 33 27 20 15 7 360 354 345 340 333 324 318 312 307 302 298 296 294 292 289 286 284 281 277 273 271 271 270 269 268 264 256 244 237 234 226 219 219 218 213 212 214 217 220 219 214 209 211 214 211 209 211 208
190 207 218 217 219 214 198 212 248 227 208 200 182 118 96 127 130 138 142 130 127 128 127 129 123 117 112 103 104 104 99 98 92 89 85 80 76 70 63 57 51 44 38 33 27 20 14 9 360 351 346 339 335 329 323 319 313 309 306 301 300 299 296 292 288 286 285 282 278 276 275 272 266 264 267 263 250 243 237 229 222 218 213 210 209 212 217 219 217 212 208 210 211 208 209 209 203
198 203 212 214 221 223 212 204 207 212 214 204 186 156 145 165 162 157 158 145 138 136 132 132 125 116 110 106 109 107 103 101 96 93 86 77 72 66 60 54 47 41 33 25 19 14 9 3 354 347 341 335 333 329 324 320 316 314 310 307 306 302 296 293 292 293 291 289 285 282 279 274 265 261 262 258 250 245 237 227 220 212 206 204 203 205 208 211 211 208 208 211 210 207 208 207 200
217 206 204 216 220 212 210 214 207 204 209 205 190 170 166 191 175 165 171 159 144 141 138 137 128 118 114 113 113 109 106 105 97 92 83 73 69 60 55 49 42 35 28 21 16 12 7 1 354 348 342 337 334 332 327 323 320 318 314 311 309 304 300 298 299 300 299 296 293 290 285 279 271 267 261 252 245 239 233 224 213 204 199 196 196 201 204 207 210 210 210 213 213 207 203 201 199
221 215 202 217 230 212 206 216 212 206 206 201 196 188 193 205 177 170 174 160 148 148 145 140 129 122 120 119 117 111 105 101 92 88 82 73 67 58 51 44 37 29 23 18 15 12 8 2 355 350 347 343 340 337 334 331 327 323 318 315 312 308 306 306 308 312 313 309 303 297 292 283 273 266 257 248 242 232 223 214 202 194 191 188 188 197 205 207 208 210 212 215 215 209 204 200 197
210 216 202 205 217 213 213 216 211 215 211 197 202 200 186 171 165 167 166 155 149 151 145 136 127 122 121 116 113 108 103 99 91 86 81 73 66 60 54 46 38 30 26 21 17 15 10 5 358 353 351 348 345 343 339 337 333 326 321 318 316 314 312 312 315 321 325 323 318 311 305 293 277 262 248 241 240 229 216 208 197 187 182 181 181 186 194 197 199 205 215 222 221 214 211 209 201
200 211 209 206 207 206 212 213 209 219 218 206 207 195 129 33 163 160 156 152 149 147 140 130 123 120 116 111 109 107 105 101 94 87 81 77 73 67 59 50 42 35 30 25 24 21 15 9 2 357 355 352 350 347 343 340 335 329 323 319 318 319 318 319 319 323 330 330 326 323 318 309 292 272 250 240 237 216 200 199 186 175 173 174 174 175 178 185 193 205 217 226 224 212 207 210 206